This is the latest recevied weather packets stored in our database for station/object KQ4PPF. If no packets are shown the sender has not sent any weather packets the latest 10 day(s).
| Time | Temp. | Humidity | Pressure | Rain* | Wind** | Luminosity | Snow |
|---|---|---|---|---|---|---|---|
| 1788553840 | 35.56° C | 51% | 1013.7 hPa | 0 mm | - | 48 W/m² | - |
| 1788553536 | 35.56° C | 51% | 1013.7 hPa | 0 mm | - | 53 W/m² | - |
| 1788553232 | 35.56° C | 50% | 1014.1 hPa | 0 mm | - | 56 W/m² | - |
| 1788552927 | 35° C | 51% | 1013.8 hPa | 0 mm | - | 49 W/m² | - |
| 1788552622 | 35° C | 52% | 1013.9 hPa | 0 mm | - | 49 W/m² | - |
| 1788552320 | 35° C | 51% | 1013.9 hPa | 0 mm | - | 50 W/m² | - |
| 1788552016 | 35° C | 53% | 1014 hPa | 0 mm | - | 49 W/m² | - |
| 1788551714 | 35° C | 52% | 1014.2 hPa | 0 mm | - | 44 W/m² | - |
| 1788551414 | 35° C | 53% | 1014.3 hPa | 0 mm | - | 52 W/m² | - |
| 1788551109 | 35° C | 52% | 1014.2 hPa | 0 mm | - | 61 W/m² | - |
| 1788550803 | 35° C | 53% | 1014.4 hPa | 0 mm | - | 75 W/m² | - |
| 1788550499 | 35° C | 53% | 1014.5 hPa | 0 mm | - | 75 W/m² | - |
| 1788550194 | 35° C | 51% | 1014.5 hPa | 0 mm | - | 87 W/m² | - |
| 1788549894 | 35° C | 53% | 1014.6 hPa | 0 mm | - | 59 W/m² | - |
| 1788549590 | 35° C | 52% | 1015.1 hPa | 0 mm | - | 64 W/m² | - |
| 1788549287 | 35° C | 54% | 1015 hPa | 0 mm | - | 66 W/m² | - |
| 1788548983 | 35° C | 57% | 1015.3 hPa | 0 mm | - | 60 W/m² | - |
| 1788548678 | 35° C | 57% | 1015.1 hPa | 0 mm | - | 79 W/m² | - |
| 1788548375 | 35° C | 57% | 1015.2 hPa | 0 mm | - | 169 W/m² | - |
| 1788548070 | 35° C | 56% | 1015.1 hPa | 0 mm | - | 88 W/m² | - |
| 1788547764 | 35.56° C | 54% | 1015.3 hPa | 0 mm | - | 89 W/m² | - |
| 1788547459 | 35.56° C | 55% | 1015.4 hPa | 0 mm | - | 81 W/m² | - |
| 1788547154 | 35° C | 55% | 1015.5 hPa | 0 mm | - | 121 W/m² | - |
| 1788546849 | 35.56° C | 54% | 1015.5 hPa | 0 mm | - | 58 W/m² | - |
| 1788546545 | 35.56° C | 54% | 1015.5 hPa | 0 mm | - | 156 W/m² | - |
* Rain latest hour (hover to see other rain measurements)
** Current wind speed in m/s (hover to see current wind gust speed)